N468JL KCLT-KTYS

Flight info

Callsign N468JL
Flight time 0h 49m
Altitude 16000
Route NEANO VXV
Aircraft BE20/L-VGD/C

Departure

Time 2026-04-25 23:10
Airport Charlotte Douglas International Airport (KCLT)

Arrival

Time 2026-04-25 23:59
Airport McGhee Tyson Airport (KTYS)
Time Latitude Longitude Altitude Speed Heading
2026-04-25 22:33 35.21114 -80.93182 752 ft 0 kts 262°
2026-04-25 22:57 35.21114 -80.93183 752 ft 0 kts 262°
2026-04-25 23:02 35.21113 -80.93183 752 ft 0 kts 262°
2026-04-25 23:04 35.21113 -80.93185 752 ft 1 kts 262°
2026-04-25 23:04 35.21116 -80.93201 752 ft 5 kts 295°
2026-04-25 23:04 35.21136 -80.93255 752 ft 5 kts 281°
2026-04-25 23:04 35.21132 -80.93301 752 ft 7 kts 263°
2026-04-25 23:05 35.21108 -80.93348 752 ft 7 kts 205°
2026-04-25 23:05 35.21047 -80.93350 752 ft 12 kts 179°
2026-04-25 23:05 35.20925 -80.93344 752 ft 22 kts 176°
2026-04-25 23:05 35.20776 -80.93328 752 ft 21 kts 175°
2026-04-25 23:06 35.20610 -80.93290 752 ft 29 kts 170°
2026-04-25 23:06 35.20403 -80.93237 752 ft 30 kts 170°
2026-04-25 23:06 35.20261 -80.93235 752 ft 11 kts 234°
2026-04-25 23:06 35.20245 -80.93278 752 ft 0 kts 252°
2026-04-25 23:07 35.20245 -80.93279 752 ft 2 kts 253°
2026-04-25 23:08 35.20237 -80.93352 752 ft 14 kts 265°
2026-04-25 23:08 35.20244 -80.93426 752 ft 0 kts 355°
2026-04-25 23:09 35.20322 -80.93433 752 ft 41 kts 356°
2026-04-25 23:09 35.20815 -80.93474 753 ft 100 kts 355°
2026-04-25 23:09 35.21625 -80.93548 945 ft 123 kts 353°
2026-04-25 23:09 35.22533 -80.93653 1183 ft 150 kts 352°
2026-04-25 23:10 35.23653 -80.93729 1469 ft 168 kts 357°
2026-04-25 23:10 35.24855 -80.93846 1703 ft 181 kts 348°
2026-04-25 23:10 35.26047 -80.94415 2020 ft 184 kts 326°
2026-04-25 23:10 35.26834 -80.95600 2486 ft 182 kts 294°
2026-04-25 23:11 35.27070 -80.97116 2827 ft 185 kts 266°
2026-04-25 23:11 35.26885 -80.98150 3123 ft 185 kts 253°
2026-04-25 23:11 35.26254 -81.00089 3658 ft 185 kts 246°
2026-04-25 23:11 35.25738 -81.01534 4060 ft 187 kts 246°
2026-04-25 23:12 35.25391 -81.02504 4355 ft 188 kts 246°
2026-04-25 23:12 35.24867 -81.03968 4798 ft 186 kts 246°
2026-04-25 23:12 35.24340 -81.05430 5153 ft 188 kts 246°
2026-04-25 23:12 35.23813 -81.06891 5478 ft 191 kts 246°
2026-04-25 23:13 35.23273 -81.08385 5806 ft 193 kts 246°
2026-04-25 23:13 35.22728 -81.09895 6134 ft 194 kts 246°
2026-04-25 23:13 35.22188 -81.11392 6478 ft 194 kts 246°
2026-04-25 23:13 35.21642 -81.12904 6829 ft 196 kts 246°
2026-04-25 23:14 35.21084 -81.14447 7184 ft 199 kts 246°
2026-04-25 23:14 35.20518 -81.16015 7559 ft 201 kts 246°
2026-04-25 23:14 35.19900 -81.17510 8004 ft 197 kts 240°
2026-04-25 23:14 35.19279 -81.19014 8403 ft 198 kts 247°
2026-04-25 23:15 35.18875 -81.20627 8778 ft 200 kts 257°
2026-04-25 23:15 35.18707 -81.22304 9131 ft 202 kts 265°
2026-04-25 23:15 35.18713 -81.24042 9487 ft 204 kts 271°
2026-04-25 23:15 35.18822 -81.25779 9842 ft 205 kts 273°
2026-04-25 23:16 35.18956 -81.27505 10193 ft 206 kts 273°
2026-04-25 23:16 35.19068 -81.29251 10600 ft 203 kts 271°
2026-04-25 23:16 35.19132 -81.30934 11090 ft 197 kts 270°
2026-04-25 23:16 35.19176 -81.32602 11587 ft 193 kts 270°
2026-04-25 23:17 35.19210 -81.34215 12047 ft 191 kts 269°
2026-04-25 23:17 35.19226 -81.35846 12498 ft 190 kts 268°
2026-04-25 23:17 35.19225 -81.37470 12928 ft 193 kts 268°
2026-04-25 23:17 35.19212 -81.39106 13352 ft 194 kts 268°
2026-04-25 23:18 35.19191 -81.40762 13685 ft 196 kts 267°
2026-04-25 23:18 35.19166 -81.42444 14018 ft 199 kts 267°
2026-04-25 23:18 35.19140 -81.44123 14366 ft 201 kts 267°
2026-04-25 23:18 35.19111 -81.45845 14719 ft 202 kts 267°
2026-04-25 23:19 35.19080 -81.47573 15071 ft 204 kts 267°
2026-04-25 23:19 35.19049 -81.49274 15516 ft 199 kts 267°
2026-04-25 23:19 35.19014 -81.50952 15874 ft 199 kts 266°
2026-04-25 23:19 35.18974 -81.52689 16001 ft 208 kts 266°
2026-04-25 23:20 35.18935 -81.54506 16034 ft 219 kts 267°
2026-04-25 23:20 35.18900 -81.56393 16029 ft 229 kts 267°
2026-04-25 23:20 35.18864 -81.58379 16026 ft 236 kts 267°
2026-04-25 23:20 35.18824 -81.60409 16024 ft 241 kts 267°
2026-04-25 23:21 35.18751 -81.62447 16023 ft 244 kts 263°
2026-04-25 23:21 35.18446 -81.64505 16024 ft 246 kts 256°
2026-04-25 23:21 35.17985 -81.66533 16024 ft 247 kts 252°
2026-04-25 23:21 35.17462 -81.68520 16023 ft 249 kts 251°
2026-04-25 23:22 35.16899 -81.70533 16022 ft 250 kts 250°
2026-04-25 23:22 35.16320 -81.72555 16021 ft 250 kts 250°
2026-04-25 23:22 35.15748 -81.74545 16020 ft 251 kts 250°
2026-04-25 23:23 35.14582 -81.78586 16017 ft 252 kts 250°
2026-04-25 23:23 35.14000 -81.80595 16016 ft 252 kts 250°
2026-04-25 23:23 35.13412 -81.82621 16014 ft 252 kts 250°
2026-04-25 23:23 35.12824 -81.84642 16012 ft 252 kts 250°
2026-04-25 23:24 35.12241 -81.86637 16010 ft 252 kts 250°
2026-04-25 23:24 35.11650 -81.88655 16009 ft 252 kts 250°
2026-04-25 23:24 35.11056 -81.90676 16007 ft 252 kts 250°
2026-04-25 23:24 35.10460 -81.92689 16006 ft 251 kts 250°
2026-04-25 23:25 35.09870 -81.94672 16005 ft 251 kts 250°
2026-04-25 23:25 35.09267 -81.96682 16005 ft 251 kts 249°
2026-04-25 23:25 35.08825 -81.98755 16001 ft 252 kts 265°
2026-04-25 23:25 35.09096 -82.00877 16009 ft 255 kts 285°
2026-04-25 23:26 35.09782 -82.02866 16011 ft 258 kts 292°
2026-04-25 23:26 35.10632 -82.04812 16010 ft 259 kts 296°
2026-04-25 23:26 35.11519 -82.06699 16010 ft 259 kts 296°
2026-04-25 23:26 35.12433 -82.08614 16011 ft 259 kts 296°
2026-04-25 23:27 35.13344 -82.10534 16013 ft 259 kts 296°
2026-04-25 23:27 35.14229 -82.12421 16015 ft 259 kts 296°
2026-04-25 23:27 35.15119 -82.14346 16016 ft 259 kts 296°
2026-04-25 23:27 35.16004 -82.16279 16018 ft 259 kts 295°
2026-04-25 23:28 35.16868 -82.18186 16019 ft 259 kts 295°
2026-04-25 23:28 35.17740 -82.20122 16020 ft 259 kts 295°
2026-04-25 23:28 35.18609 -82.22062 16022 ft 259 kts 294°
2026-04-25 23:28 35.19451 -82.23982 16030 ft 259 kts 295°
2026-04-25 23:29 35.20314 -82.25928 16029 ft 259 kts 295°
2026-04-25 23:29 35.21177 -82.27866 16030 ft 259 kts 295°
2026-04-25 23:29 35.22035 -82.29792 16031 ft 259 kts 295°
2026-04-25 23:29 35.22898 -82.31735 16032 ft 259 kts 295°
2026-04-25 23:30 35.23752 -82.33661 16033 ft 259 kts 295°
2026-04-25 23:30 35.24617 -82.35615 16035 ft 259 kts 295°
2026-04-25 23:30 35.25470 -82.37542 16036 ft 260 kts 295°
2026-04-25 23:30 35.26331 -82.39492 16038 ft 260 kts 295°
2026-04-25 23:31 35.27191 -82.41446 16039 ft 260 kts 295°
2026-04-25 23:31 35.28046 -82.43387 16040 ft 260 kts 295°
2026-04-25 23:31 35.28898 -82.45322 16042 ft 260 kts 295°
2026-04-25 23:31 35.29759 -82.47277 16043 ft 260 kts 295°
2026-04-25 23:32 35.30608 -82.49205 16045 ft 260 kts 295°
2026-04-25 23:32 35.31465 -82.51161 16046 ft 260 kts 295°
2026-04-25 23:32 35.32325 -82.53121 16047 ft 259 kts 295°
2026-04-25 23:32 35.33169 -82.55046 16048 ft 260 kts 295°
2026-04-25 23:33 35.34023 -82.56992 16048 ft 260 kts 295°
2026-04-25 23:33 35.34884 -82.58955 16048 ft 260 kts 295°
2026-04-25 23:33 35.35733 -82.60893 16049 ft 260 kts 295°
2026-04-25 23:33 35.36594 -82.62858 16049 ft 260 kts 295°
2026-04-25 23:34 35.37442 -82.64793 16049 ft 260 kts 295°
2026-04-25 23:34 35.38300 -82.66757 16048 ft 260 kts 295°
2026-04-25 23:34 35.39154 -82.68711 16048 ft 260 kts 295°
2026-04-25 23:34 35.40012 -82.70673 16047 ft 260 kts 295°
2026-04-25 23:35 35.40858 -82.72610 16048 ft 260 kts 295°
2026-04-25 23:35 35.41711 -82.74569 16048 ft 260 kts 295°
2026-04-25 23:35 35.42554 -82.76508 16047 ft 260 kts 295°
2026-04-25 23:35 35.43411 -82.78475 16047 ft 260 kts 295°
2026-04-25 23:36 35.44259 -82.80423 16049 ft 260 kts 295°
2026-04-25 23:36 35.45110 -82.82383 16050 ft 259 kts 295°
2026-04-25 23:36 35.45955 -82.84325 16049 ft 260 kts 295°
2026-04-25 23:36 35.46808 -82.86286 16048 ft 260 kts 295°
2026-04-25 23:37 35.47663 -82.88251 16047 ft 260 kts 295°
2026-04-25 23:37 35.48506 -82.90191 16046 ft 260 kts 295°
2026-04-25 23:37 35.49356 -82.92149 16046 ft 260 kts 295°
2026-04-25 23:37 35.50208 -82.94111 16045 ft 260 kts 295°
2026-04-25 23:38 35.51050 -82.96055 16045 ft 259 kts 295°
2026-04-25 23:38 35.51892 -82.98001 16044 ft 260 kts 295°
2026-04-25 23:38 35.52741 -82.99961 16044 ft 260 kts 295°
2026-04-25 23:38 35.53591 -83.01927 16043 ft 260 kts 295°
2026-04-25 23:39 35.54430 -83.03868 16042 ft 259 kts 295°
2026-04-25 23:39 35.55277 -83.05833 16042 ft 259 kts 295°
2026-04-25 23:39 35.56126 -83.07795 16042 ft 260 kts 295°
2026-04-25 23:39 35.56972 -83.09760 16038 ft 260 kts 294°
2026-04-25 23:40 35.57828 -83.11699 16044 ft 260 kts 295°
2026-04-25 23:40 35.58659 -83.13670 16046 ft 259 kts 294°
2026-04-25 23:40 35.59493 -83.15644 16045 ft 260 kts 294°
2026-04-25 23:40 35.60328 -83.17598 16042 ft 260 kts 294°
2026-04-25 23:41 35.61190 -83.19561 16038 ft 260 kts 295°
2026-04-25 23:41 35.62047 -83.21535 16035 ft 260 kts 295°
2026-04-25 23:41 35.62884 -83.23480 16034 ft 260 kts 295°
2026-04-25 23:41 35.63729 -83.25451 16032 ft 260 kts 295°
2026-04-25 23:42 35.64577 -83.27430 16031 ft 260 kts 295°
2026-04-25 23:42 35.65411 -83.29382 16030 ft 260 kts 295°
2026-04-25 23:42 35.66258 -83.31361 16028 ft 260 kts 295°
2026-04-25 23:42 35.67093 -83.33314 16027 ft 260 kts 295°
2026-04-25 23:43 35.67937 -83.35290 16025 ft 260 kts 295°
2026-04-25 23:43 35.68770 -83.37238 16027 ft 256 kts 295°
2026-04-25 23:43 35.69590 -83.39159 15824 ft 251 kts 295°
2026-04-25 23:43 35.70391 -83.41050 15441 ft 252 kts 294°
2026-04-25 23:44 35.71204 -83.42977 15041 ft 253 kts 294°
2026-04-25 23:44 35.72020 -83.44910 14637 ft 254 kts 296°
2026-04-25 23:44 35.72826 -83.46813 14340 ft 251 kts 296°
2026-04-25 23:44 35.73631 -83.48706 14063 ft 247 kts 296°
2026-04-25 23:45 35.74426 -83.50578 13760 ft 243 kts 296°
2026-04-25 23:45 35.75205 -83.52419 13318 ft 241 kts 296°
2026-04-25 23:45 35.75969 -83.54229 12849 ft 241 kts 296°
2026-04-25 23:45 35.76736 -83.56068 12371 ft 240 kts 296°
2026-04-25 23:46 35.77486 -83.57882 11899 ft 239 kts 296°
2026-04-25 23:46 35.78242 -83.59715 11422 ft 238 kts 296°
2026-04-25 23:46 35.78995 -83.61542 10944 ft 238 kts 296°
2026-04-25 23:46 35.79732 -83.63336 10471 ft 237 kts 295°
2026-04-25 23:47 35.80487 -83.65160 9956 ft 240 kts 295°
2026-04-25 23:47 35.81252 -83.66983 9487 ft 240 kts 295°
2026-04-25 23:47 35.82028 -83.68810 9060 ft 239 kts 296°
2026-04-25 23:47 35.82792 -83.70602 8638 ft 238 kts 296°
2026-04-25 23:48 35.83571 -83.72435 8329 ft 240 kts 296°
2026-04-25 23:48 35.84334 -83.74233 8156 ft 237 kts 296°
2026-04-25 23:48 35.85096 -83.76029 7979 ft 235 kts 296°
2026-04-25 23:48 35.85856 -83.77820 7802 ft 233 kts 296°
2026-04-25 23:49 35.86601 -83.79576 7627 ft 232 kts 296°
2026-04-25 23:49 35.87349 -83.81335 7452 ft 231 kts 296°
2026-04-25 23:49 35.87991 -83.83143 7197 ft 232 kts 283°
2026-04-25 23:49 35.88214 -83.85111 7005 ft 231 kts 272°
2026-04-25 23:50 35.88260 -83.87095 6805 ft 231 kts 269°
2026-04-25 23:50 35.88252 -83.89078 6603 ft 231 kts 268°
2026-04-25 23:50 35.88228 -83.91041 6462 ft 231 kts 268°
2026-04-25 23:50 35.88110 -83.93012 6357 ft 228 kts 257°
2026-04-25 23:51 35.87579 -83.94849 6257 ft 227 kts 241°
2026-04-25 23:51 35.86671 -83.96402 6166 ft 226 kts 230°
2026-04-25 23:51 35.85606 -83.97829 6066 ft 225 kts 226°
2026-04-25 23:51 35.84498 -83.99209 5966 ft 225 kts 225°
2026-04-25 23:52 35.83393 -84.00558 5866 ft 225 kts 225°
2026-04-25 23:52 35.82272 -84.01918 5765 ft 225 kts 225°
2026-04-25 23:52 35.81219 -84.03339 5665 ft 224 kts 230°
2026-04-25 23:52 35.80249 -84.04788 5489 ft 219 kts 231°
2026-04-25 23:53 35.79284 -84.06244 5192 ft 219 kts 230°
2026-04-25 23:53 35.78275 -84.07632 4893 ft 218 kts 228°
2026-04-25 23:53 35.77499 -84.09220 4573 ft 217 kts 252°
2026-04-25 23:53 35.77257 -84.11036 4236 ft 218 kts 265°
2026-04-25 23:54 35.76988 -84.12828 4185 ft 204 kts 245°
2026-04-25 23:54 35.76133 -84.14079 4264 ft 188 kts 212°
2026-04-25 23:54 35.74916 -84.14500 4263 ft 180 kts 177°
2026-04-25 23:54 35.73804 -84.13986 4268 ft 163 kts 142°
2026-04-25 23:55 35.73237 -84.12856 4053 ft 154 kts 104°
2026-04-25 23:55 35.73155 -84.12006 3996 ft 146 kts 91°
2026-04-25 23:55 35.73320 -84.10405 3704 ft 143 kts 77°
2026-04-25 23:55 35.73541 -84.09213 3402 ft 144 kts 79°
2026-04-25 23:56 35.73694 -84.08415 3188 ft 144 kts 73°
2026-04-25 23:56 35.74168 -84.07332 2820 ft 144 kts 52°
2026-04-25 23:56 35.74875 -84.06503 2492 ft 140 kts 39°
2026-04-25 23:56 35.75630 -84.05781 2217 ft 134 kts 40°
2026-04-25 23:57 35.76322 -84.05012 1893 ft 135 kts 44°
2026-04-25 23:57 35.76984 -84.04151 1578 ft 140 kts 50°
2026-04-25 23:57 35.77632 -84.03317 1484 ft 130 kts 46°
2026-04-25 23:57 35.78245 -84.02572 1397 ft 119 kts 46°
2026-04-25 23:58 35.78819 -84.01854 1276 ft 116 kts 46°
2026-04-25 23:58 35.79389 -84.01164 1165 ft 115 kts 45°
2026-04-25 23:58 35.79957 -84.00464 1031 ft 114 kts 46°
2026-04-25 23:58 35.80496 -83.99802 986 ft 99 kts 45°
2026-04-25 23:59 35.80912 -83.99285 985 ft 70 kts 46°
2026-04-25 23:59 35.81080 -83.99062 985 ft 11 kts 99°
2026-04-25 23:59 35.81038 -83.99041 985 ft 7 kts 171°
2026-04-25 23:59 35.81014 -83.99011 985 ft 6 kts 45°
2026-04-26 00:00 35.81063 -83.98949 985 ft 13 kts 45°
2026-04-26 00:00 35.81129 -83.98858 985 ft 14 kts 75°
2026-04-26 00:00 35.81106 -83.98767 985 ft 11 kts 193°
2026-04-26 00:00 35.81025 -83.98778 985 ft 10 kts 151°
2026-04-26 00:01 35.81027 -83.98752 985 ft 0 kts 46°